Back to catalog

STARLINK-34138

AliveCommunicationsVLEO
NORAD 63971·PAYLOAD·🇺🇸 United States

Launched May 13, 2025 from Cape Canaveral Space Force Station

Loading…

Next Passes (next 24 hours)

TLE

FreshSource: CelesTrak SupGP

Epoch: Sep 14, 2026, 20:39 UTC

1 63971C 25099V   26257.86090278  .00003652  00000+0  13225-3 0  2571
2 63971  43.0006 184.3815 0001177 263.2050 249.6754 15.27584226    15

Track STARLINK-34138 in real time with AllMySat

Download on the App Store